7 * 24
多渠道服务支持
STARLINK-34984是美国SpaceX公司于2025年8月22日发射的星链(Starlink)低轨通信卫星,隶属于星链全球宽带互联网星座计划。卫星采用平板设计与太阳能供电,搭载Ku/Ka波段通信载荷,配备氪工质霍尔推进器,具备自主避撞能力,寿命末期可主动离轨再入烧毁。该卫星将服务于全球偏远地区互联网接入、应急通信保障、远程教育医疗与农业智能化等场景,助力扩充星链星座容量,提升全球网络覆盖的可靠性与容量。
美国
(US)
| 数据来源 | 国际轨道数据 |
| 星历时间: | 2026-03-14T05:22:06+0800 14小时前 查看轨道信息 |
| 半长轴: | 6927.636km |
| 偏心率: | 0.0000886 |
| 轨道倾角: | 97.605° |
| 近地点辐角 | 90.803° |
| 升交点赤经 | 126.814° |
| 平近点角 | 269.330° |
| 近地点: | 548.885km |
| 远地点: | 550.113km |
| 周期: | 95.640分钟 |
| 每日圈数: | 15.05654 |